Rawlins, WY

3:47 AM MDT on August 25, 2016 (GMT -0600)
Rawlins Municipal

Weather History for KRWL - February, 2014

Change the Weather History Date:

Sunday, February 23, 2014

  Actual Average Record
Temperature  
Mean Temperature 35 °F 26 °F  
Max Temperature 44 °F 36 °F 56 °F (1958)
Min Temperature 25 °F 15 °F -15 °F (1960)
Degree Days  
Heating Degree Days 30 39  
Month to date heating degree days 924 964  
Since 1 July heating degree days 5597 5763  
Cooling Degree Days 0 0  
Month to date cooling degree days 0 0  
Year to date cooling degree days 0 0  
Moisture  
Dew Point 19 °F    
Average Humidity 59    
Maximum Humidity 81    
Minimum Humidity 36    
Precipitation  
Precipitation 0.00 in 0.01 in 0.35 in (1992)
Month to date precipitation 0.15 0.33  
Year to date precipitation 0.33 0.69  
Sea Level Pressure  
Sea Level Pressure 29.93 in    
Wind  
Wind Speed 24 mph (WSW)    
Max Wind Speed 36 mph    
Max Gust Speed 46 mph    
Visibility 10 miles    
Events      
T = Trace of Precipitation, MM = Missing Value Source: NWS Daily Summary

Daily Weather History Graph

Daily Weather History Graph

Search for Another Location

Airport or City:

Trip Planner

Search our weather history database for the weather conditions in past years. The results will help you decide how hot, cold, wet, or windy it might be!

Date:

Astronomy

Feb. 23, 2014 Rise Set
Actual Time 6:52 AM MST 5:52 PM MST
Civil Twilight 6:24 AM MST 6:20 PM MST
Nautical Twilight 5:52 AM MST 6:52 PM MST
Astronomical Twilight 5:20 AM MST 7:24 PM MST
Moon 1:56 AM MST (2/23) 11:54 AM MST (2/23)
Length of Visible Light 11h 55m
Length of Day
10h 59m
Last Quarter, 38% of the Moon is Illuminated
Feb 23
Last Quarter
Mar 1
New
Mar 8
First Quarter
Mar 16
Full
Mar 23
Last Quarter

Hourly Weather History & Observations

Time (MST) Temp. Windchill Dew Point Humidity Pressure Visibility Wind Dir Wind Speed Gust Speed Precip Events Conditions
12:53 AM 27.0 °F 13.2 °F 21.0 °F 78% 29.90 in 10.0 mi West 20.7 mph 35.7 mph N/A   Scattered Clouds
1:43 AM 28.4 °F 12.7 °F 21.2 °F 74% 29.87 in 10.0 mi West 29.9 mph 46.0 mph N/A   Mostly Cloudy
1:53 AM 28.0 °F 12.3 °F 21.0 °F 75% 29.94 in 10.0 mi West 29.9 mph 39.1 mph N/A   Mostly Cloudy
2:53 AM 26.1 °F 13.6 °F 19.9 °F 78% 29.94 in 10.0 mi West 16.1 mph - N/A   Overcast
3:53 AM 27.0 °F 12.5 °F 19.0 °F 72% 29.93 in 10.0 mi West 23.0 mph 32.2 mph N/A   Overcast
4:41 AM 26.6 °F 14.3 °F 19.4 °F 74% 29.87 in 10.0 mi WSW 16.1 mph - N/A   Scattered Clouds
4:53 AM 26.1 °F 11.3 °F 19.0 °F 75% 29.95 in 10.0 mi WSW 23.0 mph 27.6 mph N/A   Partly Cloudy
5:53 AM 26.1 °F 12.0 °F 18.0 °F 71% 29.96 in 10.0 mi WSW 20.7 mph 29.9 mph N/A   Partly Cloudy
6:53 AM 27.0 °F 13.2 °F 18.0 °F 69% 29.95 in 10.0 mi WSW 20.7 mph 32.2 mph N/A   Clear
7:53 AM 28.9 °F 16.1 °F 18.0 °F 64% 29.97 in 10.0 mi West 19.6 mph 26.5 mph N/A   Clear
8:53 AM 32.0 °F 20.1 °F 19.9 °F 61% 29.97 in 10.0 mi WSW 19.6 mph 26.5 mph N/A   Mostly Cloudy
9:53 AM 33.1 °F 19.8 °F 19.9 °F 59% 29.99 in 10.0 mi WSW 26.5 mph 34.5 mph N/A   Mostly Cloudy
10:53 AM 37.0 °F 24.9 °F 19.9 °F 50% 29.99 in 10.0 mi WSW 27.6 mph 35.7 mph N/A   Mostly Cloudy
11:53 AM 37.9 °F 26.8 °F 18.0 °F 45% 29.96 in 10.0 mi WSW 24.2 mph 35.7 mph N/A   Mostly Cloudy
12:53 PM 39.0 °F 27.6 °F 19.0 °F 45% 29.94 in 10.0 mi West 27.6 mph 40.3 mph N/A   Overcast
1:53 PM 42.1 °F 31.0 °F 19.0 °F 40% 29.90 in 10.0 mi WSW 32.2 mph 43.7 mph N/A   Mostly Cloudy
2:53 PM 42.1 °F 31.9 °F 18.0 °F 38% 29.91 in 10.0 mi West 26.5 mph 35.7 mph N/A   Partly Cloudy
3:53 PM 41.0 °F 30.2 °F 18.0 °F 40% 29.92 in 10.0 mi West 27.6 mph 39.1 mph N/A   Scattered Clouds
4:53 PM 39.9 °F 29.2 °F 19.0 °F 43% 29.93 in 10.0 mi West 25.3 mph 32.2 mph N/A   Clear
5:53 PM 37.0 °F 28.5 °F 19.9 °F 50% 29.94 in 10.0 mi West 13.8 mph - N/A   Clear
6:53 PM 36.0 °F 26.0 °F 19.9 °F 52% 29.96 in 10.0 mi WSW 17.3 mph 24.2 mph N/A   Clear
7:53 PM 37.0 °F 25.6 °F 17.1 °F 44% 29.94 in 10.0 mi West 24.2 mph 29.9 mph N/A   Clear
8:53 PM 35.1 °F 23.5 °F 18.0 °F 50% 29.94 in 10.0 mi West 21.9 mph 31.1 mph N/A   Clear
9:53 PM 37.0 °F 24.1 °F 16.0 °F 42% 29.91 in 10.0 mi West 32.2 mph 43.7 mph N/A   Clear
10:53 PM 37.0 °F 25.9 °F 16.0 °F 42% 29.90 in 10.0 mi WSW 23.0 mph 35.7 mph N/A   Clear
11:53 PM 36.0 °F 23.9 °F 17.1 °F 46% 29.88 in 10.0 mi WSW 25.3 mph 35.7 mph N/A   Clear